Time,TemperatureF,DewpointF,PressureIn,WindDirection,WindDirectionDegrees,WindSpeedMPH,WindSpeedGustMPH,Humidity,HourlyPrecipIn,Conditions,Clouds,dailyrainin,SoftwareType,DateUTC
2013-08-29 00:12:00,58.0,44.0,-100.00,SE,135,1.0,3.0,59,-99.99,,,-99.99,,2013-08-29 07:12:00,
2013-08-29 00:42:00,58.0,44.0,-100.00,NE,45,1.0,2.0,60,-99.99,,,-99.99,,2013-08-29 07:42:00,
2013-08-29 00:53:00,58.0,44.0,-100.00,East,90,0.0,1.0,61,-99.99,,,-99.99,,2013-08-29 07:53:00,
2013-08-29 01:12:00,57.0,44.0,-100.00,East,90,0.0,1.0,62,-99.99,,,-99.99,,2013-08-29 08:12:00,
2013-08-29 01:22:00,57.0,44.0,-100.00,SW,225,1.0,1.0,62,-99.99,,,-99.99,,2013-08-29 08:22:00,
2013-08-29 01:42:00,57.0,45.0,-100.00,West,270,2.0,3.0,63,-99.99,,,-99.99,,2013-08-29 08:42:00,
2013-08-29 01:52:00,57.0,45.0,-100.00,West,270,3.0,3.0,63,-99.99,,,-99.99,,2013-08-29 08:52:00,
2013-08-29 02:12:00,58.0,45.0,-100.00,West,270,3.0,3.0,61,-99.99,,,-99.99,,2013-08-29 09:12:00,
2013-08-29 02:21:00,59.0,44.0,-100.00,SW,225,3.0,4.0,58,-99.99,,,-99.99,,2013-08-29 09:21:00,
2013-08-29 02:43:00,60.0,43.0,-100.00,West,270,4.0,4.0,54,-99.99,,,-99.99,,2013-08-29 09:43:00,
2013-08-29 02:55:00,60.0,43.0,-100.00,SW,225,2.0,4.0,53,-99.99,,,-99.99,,2013-08-29 09:55:00,
2013-08-29 03:14:00,60.0,43.0,-100.00,SW,225,3.0,4.0,54,-99.99,,,-99.99,,2013-08-29 10:14:00,
2013-08-29 03:24:00,59.0,43.0,-100.00,SW,225,3.0,4.0,55,-99.99,,,-99.99,,2013-08-29 10:24:00,
2013-08-29 03:43:00,59.0,43.0,-100.00,SW,225,3.0,4.0,55,-99.99,,,-99.99,,2013-08-29 10:43:00,
2013-08-29 03:53:00,59.0,43.0,-100.00,South,180,2.0,4.0,57,-99.99,,,-99.99,,2013-08-29 10:53:00,
2013-08-29 04:12:00,58.0,43.0,-100.00,SW,225,2.0,4.0,58,-99.99,,,-99.99,,2013-08-29 11:12:00,
2013-08-29 04:22:00,58.0,44.0,-100.00,SW,225,2.0,3.0,59,-99.99,,,-99.99,,2013-08-29 11:22:00,
2013-08-29 04:42:00,58.0,44.0,-100.00,West,270,3.0,4.0,60,-99.99,,,-99.99,,2013-08-29 11:42:00,
2013-08-29 04:52:00,58.0,44.0,-100.00,SW,225,3.0,4.0,60,-99.99,,,-99.99,,2013-08-29 11:52:00,
2013-08-29 05:11:00,57.0,44.0,-100.00,South,180,2.0,4.0,60,-99.99,,,-99.99,,2013-08-29 12:11:00,
2013-08-29 05:22:00,57.0,44.0,-100.00,West,270,4.0,5.0,61,-99.99,,,-99.99,,2013-08-29 12:22:00,
2013-08-29 05:42:00,57.0,44.0,-100.00,West,270,4.0,5.0,61,-99.99,,,-99.99,,2013-08-29 12:42:00,
2013-08-29 05:52:00,57.0,44.0,-100.00,West,270,3.0,4.0,61,-99.99,,,-99.99,,2013-08-29 12:52:00,
2013-08-29 06:12:00,56.0,44.0,-100.00,South,180,1.0,3.0,63,-99.99,,,-99.99,,2013-08-29 13:12:00,
2013-08-29 06:22:00,56.0,44.0,-100.00,SW,225,1.0,3.0,64,-99.99,,,-99.99,,2013-08-29 13:22:00,
2013-08-29 06:42:00,56.0,44.0,-100.00,SW,225,1.0,3.0,64,-99.99,,,-99.99,,2013-08-29 13:42:00,
2013-08-29 06:52:00,56.0,43.0,-100.00,SW,225,1.0,3.0,63,-99.99,,,-99.99,,2013-08-29 13:52:00,
2013-08-29 07:11:00,56.0,43.0,-100.00,SW,225,2.0,4.0,61,-99.99,,,-99.99,,2013-08-29 14:11:00,
2013-08-29 07:21:00,58.0,43.0,-100.00,SW,225,5.0,6.0,59,-99.99,,,-99.99,,2013-08-29 14:21:00,
2013-08-29 07:42:00,60.0,44.0,-100.00,SW,225,6.0,7.0,55,-99.99,,,-99.99,,2013-08-29 14:42:00,
2013-08-29 07:52:00,60.0,44.0,-100.00,SW,225,1.0,7.0,56,-99.99,,,-99.99,,2013-08-29 14:52:00,
2013-08-29 08:11:00,60.0,44.0,-100.00,SW,225,6.0,9.0,55,-99.99,,,-99.99,,2013-08-29 15:11:00,
2013-08-29 08:21:00,60.0,44.0,-100.00,West,270,5.0,9.0,56,-99.99,,,-99.99,,2013-08-29 15:21:00,
2013-08-29 08:43:00,61.0,44.0,-100.00,SW,225,4.0,8.0,54,-99.99,,,-99.99,,2013-08-29 15:43:00,
2013-08-29 08:53:00,62.0,44.0,-100.00,West,270,6.0,8.0,51,-99.99,,,-99.99,,2013-08-29 15:53:00,
2013-08-29 09:13:00,63.0,43.0,-100.00,SW,225,5.0,9.0,49,-99.99,,,-99.99,,2013-08-29 16:13:00,
2013-08-29 09:24:00,63.0,43.0,-100.00,SW,225,8.0,9.0,48,-99.99,,,-99.99,,2013-08-29 16:24:00,
2013-08-29 09:43:00,65.0,44.0,-100.00,West,270,8.0,11.0,47,-99.99,,,-99.99,,2013-08-29 16:43:00,
2013-08-29 09:54:00,66.0,43.0,-100.00,SW,225,4.0,13.0,44,-99.99,,,-99.99,,2013-08-29 16:54:00,
2013-08-29 10:13:00,68.0,43.0,-100.00,SW,225,5.0,11.0,41,-99.99,,,-99.99,,2013-08-29 17:13:00,
2013-08-29 10:22:00,68.0,43.0,-100.00,West,270,4.0,9.0,41,-99.99,,,-99.99,,2013-08-29 17:22:00,
2013-08-29 10:43:00,69.0,43.0,-100.00,East,90,3.0,11.0,39,-99.99,,,-99.99,,2013-08-29 17:43:00,
2013-08-29 10:52:00,70.0,43.0,-100.00,South,180,2.0,15.0,38,-99.99,,,-99.99,,2013-08-29 17:52:00,
2013-08-29 11:11:00,69.0,43.0,-100.00,SW,225,4.0,16.0,38,-99.99,,,-99.99,,2013-08-29 18:11:00,
2013-08-29 11:21:00,71.0,42.0,-100.00,SW,225,3.0,17.0,35,-99.99,,,-99.99,,2013-08-29 18:21:00,
2013-08-29 11:42:00,70.0,41.0,-100.00,West,270,9.0,17.0,35,-99.99,,,-99.99,,2013-08-29 18:42:00,
2013-08-29 11:52:00,72.0,42.0,-100.00,West,270,8.0,16.0,34,-99.99,,,-99.99,,2013-08-29 18:52:00,
2013-08-29 12:11:00,73.0,43.0,-100.00,South,180,3.0,12.0,34,-99.99,,,-99.99,,2013-08-29 19:11:00,
2013-08-29 12:22:00,72.0,41.0,-100.00,West,270,11.0,22.0,32,-99.99,,,-99.99,,2013-08-29 19:22:00,
2013-08-29 12:42:00,72.0,41.0,-100.00,West,270,7.0,18.0,32,-99.99,,,-99.99,,2013-08-29 19:42:00,
2013-08-29 12:52:00,73.0,40.0,-100.00,West,270,11.0,18.0,31,-99.99,,,-99.99,,2013-08-29 19:52:00,
2013-08-29 13:12:00,72.0,41.0,-100.00,SW,225,7.0,17.0,32,-99.99,,,-99.99,,2013-08-29 20:12:00,
2013-08-29 13:21:00,72.0,41.0,-100.00,SW,225,4.0,14.0,32,-99.99,,,-99.99,,2013-08-29 20:21:00,
2013-08-29 13:42:00,71.0,40.0,-100.00,SW,225,8.0,12.0,32,-99.99,,,-99.99,,2013-08-29 20:42:00,
2013-08-29 13:52:00,72.0,41.0,-100.00,SW,225,3.0,12.0,32,-99.99,,,-99.99,,2013-08-29 20:52:00,
2013-08-29 14:11:00,72.0,40.0,-100.00,West,270,11.0,15.0,31,-99.99,,,-99.99,,2013-08-29 21:11:00,
2013-08-29 14:22:00,71.0,39.0,-100.00,West,270,9.0,16.0,31,-99.99,,,-99.99,,2013-08-29 21:22:00,
2013-08-29 14:43:00,73.0,40.0,-100.00,West,270,6.0,13.0,30,-99.99,,,-99.99,,2013-08-29 21:43:00,
2013-08-29 14:54:00,73.0,39.0,-100.00,SW,225,6.0,12.0,29,-99.99,,,-99.99,,2013-08-29 21:54:00,
2013-08-29 15:14:00,73.0,39.0,-100.00,SE,135,4.0,12.0,29,-99.99,,,-99.99,,2013-08-29 22:14:00,
2013-08-29 15:24:00,74.0,42.0,-100.00,NE,45,3.0,6.0,32,-99.99,,,-99.99,,2013-08-29 22:24:00,
2013-08-29 15:43:00,74.0,43.0,-100.00,NE,45,4.0,9.0,32,-99.99,,,-99.99,,2013-08-29 22:43:00,
2013-08-29 15:53:00,72.0,42.0,-100.00,NE,45,4.0,10.0,33,-99.99,,,-99.99,,2013-08-29 22:53:00,
2013-08-29 16:12:00,72.0,42.0,-100.00,NE,45,4.0,8.0,34,-99.99,,,-99.99,,2013-08-29 23:12:00,
2013-08-29 16:22:00,72.0,42.0,-100.00,NE,45,6.0,12.0,34,-99.99,,,-99.99,,2013-08-29 23:22:00,
2013-08-29 16:42:00,73.0,42.0,-100.00,East,90,3.0,9.0,33,-99.99,,,-99.99,,2013-08-29 23:42:00,
2013-08-29 16:53:00,72.0,42.0,-100.00,NE,45,8.0,14.0,33,-99.99,,,-99.99,,2013-08-29 23:53:00,
2013-08-29 17:12:00,74.0,43.0,-100.00,NE,45,6.0,13.0,33,-99.99,,,-99.99,,2013-08-30 00:12:00,
2013-08-29 17:21:00,75.0,43.0,-100.00,NW,315,5.0,9.0,32,-99.99,,,-99.99,,2013-08-30 00:21:00,
2013-08-29 17:42:00,76.0,43.0,-100.00,South,180,3.0,7.0,31,-99.99,,,-99.99,,2013-08-30 00:42:00,
2013-08-29 17:52:00,74.0,42.0,-100.00,SW,225,3.0,8.0,31,-99.99,,,-99.99,,2013-08-30 00:52:00,
2013-08-29 18:12:00,73.0,43.0,-100.00,NE,45,6.0,13.0,34,-99.99,,,-99.99,,2013-08-30 01:12:00,
2013-08-29 18:21:00,73.0,44.0,-100.00,NE,45,5.0,14.0,36,-99.99,,,-99.99,,2013-08-30 01:21:00,
2013-08-29 18:42:00,71.0,44.0,-100.00,NE,45,8.0,13.0,37,-99.99,,,-99.99,,2013-08-30 01:42:00,
2013-08-29 18:52:00,71.0,45.0,-100.00,NE,45,6.0,12.0,39,-99.99,,,-99.99,,2013-08-30 01:52:00,
2013-08-29 19:11:00,69.0,45.0,-100.00,NE,45,1.0,10.0,41,-99.99,,,-99.99,,2013-08-30 02:11:00,
2013-08-29 19:21:00,68.0,44.0,-100.00,East,90,3.0,10.0,43,-99.99,,,-99.99,,2013-08-30 02:21:00,
2013-08-29 19:42:00,67.0,45.0,-100.00,South,180,4.0,7.0,45,-99.99,,,-99.99,,2013-08-30 02:42:00,
2013-08-29 19:52:00,66.0,45.0,-100.00,NE,45,8.0,15.0,48,-99.99,,,-99.99,,2013-08-30 02:52:00,
2013-08-29 20:12:00,65.0,45.0,-100.00,East,90,3.0,10.0,49,-99.99,,,-99.99,,2013-08-30 03:12:00,
2013-08-29 20:22:00,65.0,46.0,-100.00,SE,135,4.0,14.0,50,-99.99,,,-99.99,,2013-08-30 03:22:00,
2013-08-29 20:43:00,64.0,46.0,-100.00,NE,45,1.0,5.0,52,-99.99,,,-99.99,,2013-08-30 03:43:00,
2013-08-29 20:55:00,63.0,46.0,-100.00,East,90,2.0,5.0,54,-99.99,,,-99.99,,2013-08-30 03:55:00,
2013-08-29 21:14:00,62.0,46.0,-100.00,East,90,3.0,7.0,56,-99.99,,,-99.99,,2013-08-30 04:14:00,
2013-08-29 21:24:00,62.0,47.0,-100.00,NE,45,3.0,6.0,57,-99.99,,,-99.99,,2013-08-30 04:24:00,
2013-08-29 21:44:00,62.0,47.0,-100.00,NE,45,4.0,7.0,57,-99.99,,,-99.99,,2013-08-30 04:44:00,
2013-08-29 21:54:00,61.0,47.0,-100.00,NE,45,4.0,9.0,58,-99.99,,,-99.99,,2013-08-30 04:54:00,
2013-08-29 22:12:00,61.0,47.0,-100.00,NE,45,4.0,8.0,60,-99.99,,,-99.99,,2013-08-30 05:12:00,
2013-08-29 22:23:00,60.0,47.0,-100.00,NE,45,3.0,9.0,62,-99.99,,,-99.99,,2013-08-30 05:23:00,
2013-08-29 22:42:00,60.0,47.0,-100.00,NE,45,2.0,4.0,63,-99.99,,,-99.99,,2013-08-30 05:42:00,
2013-08-29 22:52:00,59.0,47.0,-100.00,NE,45,2.0,3.0,64,-99.99,,,-99.99,,2013-08-30 05:52:00,
2013-08-29 23:12:00,58.0,47.0,-100.00,NE,45,1.0,4.0,67,-99.99,,,-99.99,,2013-08-30 06:12:00,
2013-08-29 23:22:00,58.0,47.0,-100.00,NE,45,3.0,5.0,68,-99.99,,,-99.99,,2013-08-30 06:22:00,
2013-08-29 23:42:00,58.0,48.0,-100.00,NE,45,4.0,6.0,70,-99.99,,,-99.99,,2013-08-30 06:42:00,
2013-08-29 23:53:00,57.0,48.0,-100.00,NE,45,3.0,6.0,71,-99.99,,,-99.99,,2013-08-30 06:53:00,